WetterOnline ( https://www.wetteronline.de )

Wetter aktuell Zugspitze

Aktuelles Wetter: Garmisch-Partenkirchen (719m)

6-stündlich | Neueste Meldungen
Ortszeit Temperatur Wetter
Di, 27.10. 7:00 2.3° C leichter Regen
Di, 27.10. 1:00 1.4° C Regen
Mo, 26.10. 19:00 2.4° C Regen
Mo, 26.10. 13:00 8.0° C leichter Regen
Mo, 26.10. 7:00 4.8° C leicht bewölkt
Mo, 26.10. 1:00 4.3° C bedeckt
So, 25.10. 19:00 7.7° C bewölkt
So, 25.10. 13:00 17.6° C leicht bewölkt
Ortszeit Temperatur Wetter
Di, 27.10. 10:30 5.7° C bedeckt
Di, 27.10. 10:20 5.7° C bedeckt
Di, 27.10. 10:10 5.2° C Sprühregen
Di, 27.10. 10:00 4.5° C leichter Regen
Di, 27.10. 9:50 4.5° C leichter Regen
Di, 27.10. 9:40 4.3° C Sprühregen
Di, 27.10. 9:30 4.2° C Sprühregen
Di, 27.10. 9:00 3.4° C Sprühregen
Di, 27.10. 8:30 3.0° C leichter Regen
Di, 27.10. 8:00 2.6° C leichter Regen
Di, 27.10. 7:30 2.3° C leichter Regen
Ortszeit Relative Feuchte Sichtweite
Di, 27.10. 7:00 98% 30 km
Di, 27.10. 1:00 97% 4.4 km
Mo, 26.10. 19:00 93% 26 km
Mo, 26.10. 13:00 88% 13 km
Mo, 26.10. 7:00 96% 50 km
Mo, 26.10. 1:00 97% 60 km
So, 25.10. 19:00 95% 45 km
So, 25.10. 13:00 49% >70 km
Ortszeit Relative Feuchte Sichtweite
Di, 27.10. 10:30 88% >70 km
Di, 27.10. 10:20 88% -
Di, 27.10. 10:10 89% -
Di, 27.10. 10:00 90% 55 km
Di, 27.10. 9:50 90% -
Di, 27.10. 9:40 89% -
Di, 27.10. 9:30 91% 60 km
Di, 27.10. 9:00 93% 30 km
Di, 27.10. 8:30 94% 45 km
Di, 27.10. 8:00 97% 35 km
Di, 27.10. 7:30 97% 29 km
Ortszeit Niederschlagsmenge Niederschlagsart
Di, 27.10. 7:00 17 l/m2 in 12 Std. Regen
Di, 27.10. 1:00 14 l/m2 in 6 Std. Schnee, Regen
Mo, 26.10. 19:00 16 l/m2 in 12 Std. Regenschauer
Mo, 26.10. 13:00 2 l/m2 in 6 Std. Regen
Mo, 26.10. 7:00 0.0 l/m2 in 12 Std. -
Mo, 26.10. 1:00 0.0 l/m2 in 6 Std. -
So, 25.10. 19:00 0.0 l/m2 in 12 Std. -
So, 25.10. 13:00 0.0 l/m2 in 6 Std. -
Ortszeit Niederschlagsmenge Niederschlagsart
Di, 27.10. 10:30 0.1 l/m2 in 1 Std. Schneeregen
Di, 27.10. 10:20 keine Meldung -
Di, 27.10. 10:10 keine Meldung -
Di, 27.10. 10:00 0.1 l/m2 in 1 Std. Regen
Di, 27.10. 9:50 keine Meldung -
Di, 27.10. 9:40 keine Meldung -
Di, 27.10. 9:30 0.1 l/m2 in 1 Std. -
Di, 27.10. 9:00 0.3 l/m2 in 1 Std. Regen
Di, 27.10. 8:30 0.1 l/m2 in 1 Std. -
Di, 27.10. 8:00 0.4 l/m2 in 1 Std. Regen
Di, 27.10. 7:30 0.2 l/m2 in 1 Std. -
Ortszeit Stärke Spitze Richtung
km/h Bft. km/h Grad Sektor
Di, 27.10. 7:00 4 1 11 140° SO
Di, 27.10. 1:00 0 0 7 - -
Mo, 26.10. 19:00 4 1 14 270° W
Mo, 26.10. 13:00 4 1 32 10° N
Mo, 26.10. 7:00 7 2 18 230° SW
Mo, 26.10. 1:00 4 1 11 230° SW
So, 25.10. 19:00 4 1 25 230° SW
So, 25.10. 13:00 7 2 14 210° SW
Ortszeit Stärke Spitze Richtung
km/h Bft. km/h Grad Sektor
Di, 27.10. 10:30 4 1 4 180° S
Di, 27.10. 10:20 4 1 - 180° S
Di, 27.10. 10:10 4 1 - 210° SW
Di, 27.10. 10:00 4 1 7 240° SW
Di, 27.10. 9:50 4 1 - 240° SW
Di, 27.10. 9:40 4 1 - 230° SW
Di, 27.10. 9:30 2 1 4 240° SW
Di, 27.10. 9:00 2 1 7 240° SW
Di, 27.10. 8:30 2 1 7 270° W
Di, 27.10. 8:00 0 0 7 - -
Di, 27.10. 7:30 4 1 7 230° SW
Ortszeit Untergrenze Bedeckung Gattung
total tief tief mittel hoch
Di, 27.10. 7:00 1230 m 8/8 8/8 - - -
Di, 27.10. 1:00 360 m 6/8 6/8 - - -
Mo, 26.10. 19:00 270 m 7/8 7/8 - - -
Mo, 26.10. 13:00 240 m 8/8 8/8 - - -
Mo, 26.10. 7:00 7500 m 6/8 0/8 - - -
Mo, 26.10. 1:00 5700 m 8/8 8/8 - - -
So, 25.10. 19:00 5100 m 8/8 4/8 - - -
So, 25.10. 13:00 10500 m 5/8 0/8 - - -
Ortszeit Bedeckungsgrad in Achtel und Wolkenuntergrenze
Di, 27.10. 10:30 7(1320m) 8(2700m) 8(3900m)
Di, 27.10. 10:20 7(1320m) 8(2700m) 8(3900m)
Di, 27.10. 10:10 6(1410m) 8(2700m) 8(3900m)
Di, 27.10. 10:00 2(150m) 7(1500m) 8(2700m)
Di, 27.10. 9:50 2(150m) 7(1500m) 8(2700m)
Di, 27.10. 9:40 5(150m) 8(1500m) 8(2700m)
Di, 27.10. 9:30 7(150m) 8(1800m) 8(3000m)
Di, 27.10. 9:00 1(600m) 8(1800m) 8(3300m)
Di, 27.10. 8:30 1(600m) 6(1230m) 8(1500m)
Di, 27.10. 8:00 1(600m) 7(1470m) 7(1500m)
Di, 27.10. 7:30 8(1320m)
Ortszeit Luftdruck NN (hPa) Tendenz (hPa in 3 Std.)
Di, 27.10. 7:00 1014 + 1,0
Di, 27.10. 1:00 1014 + 0,4
Mo, 26.10. 19:00 1013 + 1,5
Mo, 26.10. 13:00 1007 + 1,2
Mo, 26.10. 7:00 1004 - 1,4
Mo, 26.10. 1:00 1007 - 2,6
So, 25.10. 19:00 1009 + 0,7
So, 25.10. 13:00 1008 - 2,6
Ortszeit Luftdruck NN (hPa) Tendenz (hPa in 3 Std.)
Di, 27.10. 10:30 1015 + 1,1
Di, 27.10. 10:20 1015 keine Meldung
Di, 27.10. 10:10 1015 keine Meldung
Di, 27.10. 10:00 1015 + 1,0
Di, 27.10. 9:50 1015 keine Meldung
Di, 27.10. 9:40 1015 keine Meldung
Di, 27.10. 9:30 1015 + 1,6
Di, 27.10. 9:00 1015 + 1,2
Di, 27.10. 8:30 1015 + 1,3
Di, 27.10. 8:00 1015 + 1,3
Di, 27.10. 7:30 1014 + 1,0
Ortszeit Schneehöhe (cm)
Di, 27.10. 7:00 0
Di, 27.10. 1:00 0
Mo, 26.10. 19:00 0
Mo, 26.10. 13:00 0
Mo, 26.10. 7:00 0
Mo, 26.10. 1:00 0
So, 25.10. 19:00 0
So, 25.10. 13:00 0
Ortszeit Schneehöhe (cm)
Di, 27.10. 10:30 0
Di, 27.10. 10:20 0
Di, 27.10. 10:10 0
Di, 27.10. 10:00 0
Di, 27.10. 9:50 0
Di, 27.10. 9:40 0
Di, 27.10. 9:30 0
Di, 27.10. 9:00 0
Di, 27.10. 8:30 0
Di, 27.10. 8:00 0
Di, 27.10. 7:30 0
Link zu dieser Seite / Seite empfehlen

Das Wetter in ...